User: anonymous   Login
Location: Cisewo
(53.3833°N, 14.9000°E)
Time: 04:25:16
(UTC+00:00)
Language:

Cosmos 1953 Rocket - Orbit

View from above orbital plane
View from above orbital plane
View from above satellite
View from above satellite

Ground track
Ground track

The orbit data is extracted from the following two-line orbital elements,

1 19211U 88050B   21171.37843448  .00000061  00000-0  46048-5 0  9992
2 19211  82.5269 272.8320 0021107 336.0406  23.9825 14.83114560762721
Epoch (UTC): 20 June 2021 09:04:56
Eccentricity: 0.0021107
inclination: 82.5269°
perigee height: 605 km
apogee height: 634 km
right ascension of ascending node: 272.8320°
argument of perigee: 336.0406°
revolutions per day: 14.83114560
mean anomaly at epoch: 23.9825°
orbit number at epoch: 76272

The dashed part of the orbit path shows where the satellite is in the earth's shadow,  

DLR